TimeCST,TemperatureF,Dew PointF,Humidity,Sea Level PressureIn,VisibilityMPH,Wind Direction,Wind SpeedMPH,Gust SpeedMPH,PrecipitationIn,Events,Conditions,WindDirDegrees,DateUTC
12:15 AM,44.6,43.0,94,29.76,7.0,SE,6.9,-,N/A,,Clear,130,2012-12-03 06:15:00
12:55 AM,45.5,44.2,95,29.73,5.0,SE,5.8,-,N/A,,Clear,130,2012-12-03 06:55:00
1:15 AM,45.9,45.0,97,29.72,5.0,ESE,5.8,-,N/A,,Clear,120,2012-12-03 07:15:00
1:35 AM,45.5,44.2,95,29.71,4.0,SE,4.6,-,N/A,,Clear,130,2012-12-03 07:35:00
1:55 AM,45.3,44.8,98,29.70,4.0,ESE,3.5,-,N/A,,Clear,120,2012-12-03 07:55:00
2:15 AM,45.9,45.3,98,29.69,4.0,SE,4.6,-,N/A,,Clear,130,2012-12-03 08:15:00
2:35 AM,46.0,45.5,98,29.68,4.0,SE,4.6,-,N/A,,Clear,130,2012-12-03 08:35:00
2:55 AM,45.3,44.6,97,29.67,4.0,SE,5.8,-,N/A,,Clear,130,2012-12-03 08:55:00
3:15 AM,43.5,43.0,98,29.65,4.0,SE,4.6,-,N/A,,Clear,140,2012-12-03 09:15:00
3:35 AM,45.1,44.8,99,29.65,4.0,SE,3.5,-,N/A,,Clear,130,2012-12-03 09:35:00
3:55 AM,45.5,45.0,98,29.64,4.0,SE,5.8,-,N/A,,Clear,130,2012-12-03 09:55:00
4:15 AM,45.5,45.1,99,29.62,3.0,SE,5.8,-,N/A,,Clear,130,2012-12-03 10:15:00
4:35 AM,46.4,46.4,100,29.62,3.0,SE,4.6,-,N/A,,Clear,130,2012-12-03 10:35:00
4:55 AM,46.4,46.4,100,29.61,2.5,SE,4.6,-,N/A,,Clear,130,2012-12-03 10:55:00
5:15 AM,47.5,47.5,100,29.61,2.0,Calm,Calm,-,N/A,,Clear,0,2012-12-03 11:15:00
5:35 AM,46.9,46.9,100,29.62,0.2,Calm,Calm,-,N/A,Fog,Fog,0,2012-12-03 11:35:00
5:55 AM,43.5,43.3,99,29.62,0.2,Calm,Calm,-,N/A,Fog,Fog,0,2012-12-03 11:55:00
6:15 AM,40.8,40.8,100,29.63,0.2,Calm,Calm,-,N/A,Fog,Fog,0,2012-12-03 12:15:00
6:35 AM,41.5,41.5,100,29.63,0.2,Calm,Calm,-,N/A,Fog,Fog,0,2012-12-03 12:35:00
6:55 AM,40.5,40.5,100,29.62,0.2,Calm,Calm,-,N/A,Fog,Fog,0,2012-12-03 12:55:00
7:15 AM,40.5,40.5,100,29.64,0.2,Calm,Calm,-,N/A,Fog,Fog,0,2012-12-03 13:15:00
7:35 AM,41.5,41.5,100,29.64,0.2,Calm,Calm,-,N/A,Fog,Fog,0,2012-12-03 13:35:00
7:55 AM,41.2,41.2,100,29.63,0.2,Calm,Calm,-,N/A,Fog,Fog,0,2012-12-03 13:55:00
8:15 AM,42.3,42.3,100,29.64,0.2,Calm,Calm,-,N/A,Fog,Fog,0,2012-12-03 14:15:00
8:35 AM,43.2,43.2,100,29.64,0.2,Calm,Calm,-,N/A,Fog,Fog,0,2012-12-03 14:35:00
8:55 AM,45.5,45.5,100,29.65,0.2,Calm,Calm,-,N/A,Fog,Fog,0,2012-12-03 14:55:00
9:15 AM,48.6,48.6,100,29.67,0.2,West,6.9,-,N/A,Fog,Fog,280,2012-12-03 15:15:00
9:35 AM,50.4,50.4,100,29.67,2.5,West,3.5,-,N/A,,Overcast,270,2012-12-03 15:35:00
9:55 AM,51.1,51.1,100,29.68,2.0,West,4.6,-,N/A,,Overcast,260,2012-12-03 15:55:00
10:15 AM,49.8,49.8,100,29.69,7.0,West,13.8,18.4,N/A,,Mostly Cloudy,280,2012-12-03 16:15:00
10:35 AM,49.1,49.1,100,29.70,10.0,WNW,9.2,-,N/A,,Scattered Clouds,290,2012-12-03 16:35:00
10:55 AM,49.6,49.6,100,29.72,10.0,WNW,9.2,-,N/A,,Clear,300,2012-12-03 16:55:00
11:15 AM,49.1,49.1,100,29.72,10.0,NW,15.0,21.9,N/A,,Clear,310,2012-12-03 17:15:00
11:35 AM,49.6,49.1,98,29.72,10.0,NNW,5.8,-,N/A,,Clear,330,2012-12-03 17:35:00
11:55 AM,55.0,46.2,72,29.75,10.0,NW,10.4,18.4,N/A,,Clear,310,2012-12-03 17:55:00
12:15 PM,57.9,45.9,64,29.75,10.0,NW,13.8,23.0,N/A,,Clear,320,2012-12-03 18:15:00
12:35 PM,59.2,43.9,57,29.76,10.0,NNW,19.6,29.9,N/A,,Clear,340,2012-12-03 18:35:00
1:15 PM,61.2,41.2,48,29.78,10.0,NNW,10.4,25.3,N/A,,Clear,330,2012-12-03 19:15:00
1:35 PM,61.0,40.5,47,29.79,10.0,NNW,17.3,26.5,N/A,,Clear,330,2012-12-03 19:35:00
1:55 PM,61.9,39.9,44,29.80,10.0,NW,19.6,26.5,N/A,,Clear,320,2012-12-03 19:55:00
2:15 PM,61.2,38.3,43,29.82,10.0,NW,17.3,24.2,N/A,,Clear,320,2012-12-03 20:15:00
2:35 PM,60.3,34.9,39,29.83,10.0,NNW,17.3,25.3,N/A,,Clear,330,2012-12-03 20:35:00
2:55 PM,60.3,35.4,39,29.84,10.0,NNW,12.7,24.2,N/A,,Clear,330,2012-12-03 20:55:00
3:15 PM,60.1,35.6,40,29.86,10.0,NNW,11.5,23.0,N/A,,Clear,340,2012-12-03 21:15:00
3:35 PM,59.4,35.4,41,29.87,10.0,North,5.8,21.9,N/A,,Clear,350,2012-12-03 21:35:00
3:55 PM,59.0,35.6,42,29.89,10.0,NW,8.1,17.3,N/A,,Clear,320,2012-12-03 21:55:00
4:15 PM,58.6,34.5,40,29.90,10.0,NNW,9.2,-,N/A,,Scattered Clouds,330,2012-12-03 22:15:00
4:35 PM,57.7,31.3,37,29.91,10.0,NW,15.0,19.6,N/A,,Scattered Clouds,320,2012-12-03 22:35:00
4:55 PM,56.8,30.2,36,29.92,10.0,NNW,11.5,18.4,N/A,,Clear,330,2012-12-03 22:55:00
5:15 PM,56.3,30.4,37,29.94,10.0,NNW,10.4,-,N/A,,Clear,330,2012-12-03 23:15:00
5:35 PM,55.0,31.1,40,29.95,10.0,NW,6.9,-,N/A,,Clear,320,2012-12-03 23:35:00
5:55 PM,53.6,32.0,44,29.96,10.0,NW,3.5,-,N/A,,Clear,320,2012-12-03 23:55:00
6:15 PM,51.8,32.0,47,29.98,10.0,NW,4.6,-,N/A,,Clear,310,2012-12-04 00:15:00
6:35 PM,51.8,32.0,47,29.98,10.0,NW,3.5,-,N/A,,Clear,310,2012-12-04 00:35:00
6:55 PM,49.8,32.0,50,29.99,10.0,WNW,3.5,-,N/A,,Clear,300,2012-12-04 00:55:00
7:15 PM,48.9,32.0,52,30.00,10.0,Calm,Calm,-,N/A,,Clear,0,2012-12-04 01:15:00
7:35 PM,47.3,32.2,56,30.01,10.0,WNW,3.5,-,N/A,,Clear,300,2012-12-04 01:35:00
7:55 PM,46.4,32.0,57,30.02,10.0,Calm,Calm,-,N/A,,Clear,0,2012-12-04 01:55:00
8:15 PM,43.9,32.0,63,30.02,10.0,NW,3.5,-,N/A,,Clear,310,2012-12-04 02:15:00
8:35 PM,44.6,31.8,61,30.03,10.0,WNW,3.5,-,N/A,,Clear,290,2012-12-04 02:35:00
8:55 PM,41.4,31.3,67,30.04,10.0,WNW,3.5,-,N/A,,Clear,290,2012-12-04 02:55:00
9:15 PM,41.9,30.7,65,30.05,10.0,NW,5.8,-,N/A,,Clear,310,2012-12-04 03:15:00
9:35 PM,43.5,28.8,56,30.06,10.0,WNW,3.5,-,N/A,,Clear,290,2012-12-04 03:35:00
9:55 PM,40.1,27.7,61,30.07,10.0,Calm,Calm,-,N/A,,Clear,0,2012-12-04 03:55:00
10:15 PM,38.5,28.8,68,30.07,10.0,Calm,Calm,-,N/A,,Clear,0,2012-12-04 04:15:00
10:35 PM,38.3,28.8,69,30.07,10.0,Calm,Calm,-,N/A,,Clear,0,2012-12-04 04:35:00
10:55 PM,38.5,27.7,65,30.08,10.0,Calm,Calm,-,N/A,,Clear,0,2012-12-04 04:55:00
11:15 PM,36.5,28.4,72,30.09,10.0,Calm,Calm,-,N/A,,Clear,0,2012-12-04 05:15:00
11:35 PM,35.8,27.1,71,30.09,10.0,Calm,Calm,-,N/A,,Clear,0,2012-12-04 05:35:00
11:55 PM,35.8,27.0,70,30.09,10.0,WNW,3.5,-,N/A,,Clear,300,2012-12-04 05:55:00